[[{"header":{"parameterUnit":"m.s-1","parameterCategory":1,"la1":30.2991,"la2":30.254,"lo1":-89.0895,"lo2":-89.0444,"dy":0.0017,"dx":0.0017,"nx":28,"ny":28,"refTime":"2025-02-11T03:00:00:Z","depth":0,"parameterNumber":2,"parameterNumberName":"U-component_of_WINDS"},"data":[0,0,0,0,0,0,0,0,0,0,0,0,0,0,0,0,0,0,0,0,0,0,0,0,0,0,0,0,0,0,0,0,0,0,0,0,0,0,0,0,0,0,0,0,0,0,0,0,0,0,0,0,0,0,0,0,0,0,-0.2864,-0.2864,0,-0.2789,-0.2788,-0.2787,-0.2748,-0.2748,-0.2748,-0.2748,-0.2667,-0.2665,-0.2663,0,0,0,0,0,0,0,0,0,0,0,0,0,-0.2973,-0.2971,-0.2865,-0.2864,-0.2863,-0.2789,-0.2788,-0.2787,-0.2748,-0.2748,-0.2748,-0.2748,-0.2668,-0.2665,-0.2663,0,0,0,0,0,0,0,0,0,0,0,0,0,-0.2914,-0.297,-0.2865,-0.2835,-0.2831,-0.2789,-0.2788,-0.2787,-0.2748,-0.2748,-0.2748,-0.2748,-0.2669,-0.2666,-0.2663,-0.2644,0,0,-0.2653,-0.2651,0,0,0,0,0,0,0,0,-0.2918,-0.291,-0.284,-0.2837,-0.2833,-0.2778,-0.2796,-0.2739,-0.2748,-0.278,-0.2748,-0.2748,-0.2704,-0.2698,-0.2684,-0.264,-0.2636,-0.2652,-0.2651,-0.2649,-0.2648,0,0,0,0,0,0,0,-0.2922,-0.2913,-0.2834,-0.2839,-0.2835,-0.2824,-0.2816,-0.2785,-0.2743,-0.2777,-0.2774,-0.2766,-0.2702,-0.2687,-0.2681,-0.2635,-0.2653,-0.265,-0.2648,-0.2647,-0.2572,-0.2572,0,0,0,0,0,0,-0.2931,-0.2917,-0.2837,-0.2832,-0.2876,-0.2822,-0.2813,-0.2796,-0.2743,-0.2735,-0.2766,-0.2764,-0.2692,-0.2685,-0.2678,-0.2653,-0.2649,-0.2646,-0.2644,-0.2572,-0.2572,-0.2572,0,0,0,0,0,0,-0.2934,-0.2924,-0.284,-0.2874,-0.2862,-0.282,-0.2801,-0.2794,-0.2779,-0.2735,-0.2727,-0.2758,-0.2692,-0.2683,-0.2653,-0.2649,-0.2645,-0.2642,-0.2572,-0.2572,-0.2572,-0.2601,0,0,0,0,0,0,-0.2937,-0.2925,-0.2918,-0.2874,-0.2861,-0.2817,-0.2801,-0.2793,-0.2774,-0.2771,-0.2726,-0.2718,-0.2691,-0.2658,-0.265,-0.2645,-0.2639,-0.2572,-0.2572,-0.2572,-0.26,-0.2602,-0.2603,0,0,0,0,0,-0.2941,-0.2929,-0.2918,-0.2909,-0.2851,-0.2816,-0.2809,-0.2779,-0.2774,-0.2766,-0.2738,-0.2719,-0.2651,-0.2655,-0.2645,-0.264,-0.2572,-0.2572,-0.2572,-0.2599,-0.2602,-0.2603,0,0,0,0,0,0,-0.2973,-0.2923,-0.291,-0.2884,-0.2855,-0.281,-0.2799,-0.2782,-0.2753,-0.2752,-0.2715,-0.2705,-0.2678,-0.2656,-0.2661,-0.2618,-0.261,-0.2608,-0.2634,-0.2636,-0.2637,-0.2643,-0.2637,0,0,0,0,0,-0.2977,-0.2954,-0.2911,-0.2892,-0.2878,-0.2841,-0.2825,-0.2805,-0.2773,-0.276,-0.2729,-0.2698,-0.267,-0.2651,-0.2623,-0.2597,-0.2586,-0.2588,-0.259,-0.2591,-0.259,-0.2574,-0.2574,-0.2571,-0.2571,-0.2571,0,0,-0.2985,-0.2955,-0.2942,-0.2898,-0.2873,-0.2849,-0.2831,-0.2807,-0.2788,-0.2756,-0.2726,-0.2702,-0.2665,-0.2637,-0.2623,-0.2617,-0.2589,-0.2591,-0.2593,-0.259,-0.2574,-0.2574,-0.2575,-0.2571,-0.2571,-0.2571,0,0,-0.2988,-0.2963,-0.2944,-0.292,-0.2883,-0.2859,-0.2854,-0.2812,-0.2796,-0.2765,-0.2741,-0.2718,-0.2669,-0.2644,-0.2624,-0.2618,-0.26,-0.261,-0.2618,-0.2603,-0.2603,-0.2603,-0.2601,-0.26,-0.2608,-0.2608,-0.2608,0,-0.3002,-0.2966,-0.2936,-0.2913,-0.2894,-0.2865,-0.2846,-0.2823,-0.2778,-0.2765,-0.276,-0.2699,-0.2672,-0.2637,-0.2636,-0.2621,-0.2615,-0.2614,-0.2606,-0.2606,-0.2605,-0.2602,-0.2601,-0.261,-0.261,-0.2609,-0.2609,0,-0.2985,-0.2961,-0.295,-0.2909,-0.2888,-0.2867,-0.2833,-0.2816,-0.2798,-0.2774,-0.2743,-0.271,-0.2674,-0.2664,-0.2646,-0.2627,-0.2624,-0.2613,-0.2603,-0.2607,-0.2604,-0.2602,-0.2612,-0.2611,-0.2611,-0.261,0,0,-0.3005,-0.2948,-0.2945,-0.2926,-0.2883,-0.2863,-0.284,-0.2807,-0.2792,-0.2762,-0.2742,-0.2702,-0.2691,-0.267,-0.2648,-0.2635,-0.2632,-0.2625,-0.2624,-0.2627,-0.2608,-0.2617,-0.2616,-0.262,-0.262,-0.2619,-0.2611,0,-0.3001,-0.296,-0.2933,-0.2902,-0.2879,-0.2851,-0.2831,-0.2803,-0.278,-0.2756,-0.273,-0.2702,-0.2691,-0.2677,-0.2664,-0.2635,-0.2627,-0.2635,-0.2599,-0.2598,-0.2609,-0.2614,-0.2623,-0.2617,-0.261,-0.261,-0.2609,0,-0.2991,-0.2963,-0.293,-0.2891,-0.288,-0.2863,-0.2829,-0.2807,-0.2774,-0.2758,-0.2734,-0.2713,-0.2686,-0.268,-0.2643,-0.2649,-0.2633,-0.2617,-0.2616,-0.261,-0.2604,-0.2609,-0.2615,-0.2614,-0.2607,-0.2607,-0.2607,0,-0.3008,-0.2962,-0.2937,-0.2922,-0.2875,-0.2863,-0.2843,-0.281,-0.2791,-0.2762,-0.2749,-0.2717,-0.2699,-0.2674,-0.2644,-0.2642,-0.261,-0.2601,-0.2595,-0.2596,-0.2589,-0.259,-0.2592,-0.258,-0.258,-0.258,-0.258,0,-0.3006,-0.2987,-0.2944,-0.2929,-0.2906,-0.2875,-0.2853,-0.2831,-0.2802,-0.278,-0.2754,-0.2735,-0.2696,-0.2672,-0.2648,-0.2621,-0.2613,-0.2599,-0.2592,-0.2601,-0.2602,-0.2589,-0.2588,-0.2579,-0.2579,-0.2579,-0.2579,0,-0.3021,-0.2992,-0.2962,-0.2921,-0.291,-0.2895,-0.2859,-0.2842,-0.2819,-0.2792,-0.2784,-0.2746,-0.2716,-0.2684,-0.2642,-0.2626,-0.26,-0.2591,-0.2612,-0.2608,-0.2604,-0.2605,-0.2597,-0.2594,-0.2585,-0.2585,-0.2585,0,-0.3022,-0.3007,-0.2964,-0.2948,-0.2929,-0.2904,-0.2886,-0.2854,-0.2836,-0.2797,-0.2785,-0.2753,-0.2726,-0.2678,-0.2646,-0.2614,-0.2605,-0.2604,-0.26,-0.2608,-0.2604,-0.2605,-0.2603,-0.2606,-0.2606,-0.2606,-0.2606,0,-0.3026,-0.3012,-0.2987,-0.2956,-0.2935,-0.2909,-0.2882,-0.287,-0.2833,-0.2814,-0.2783,-0.2762,-0.2721,-0.2689,-0.2653,-0.2631,-0.2612,-0.2608,-0.2605,-0.2613,-0.2625,-0.2618,-0.2615,-0.2608,-0.2608,-0.2608,-0.2608,-0.2608,-0.3033,-0.3018,-0.2986,-0.2959,-0.2935,-0.2911,-0.2893,-0.2868,-0.2842,-0.2807,-0.2789,-0.2759,-0.2725,-0.2676,-0.2654,-0.2629,-0.2624,-0.2619,-0.2618,-0.2617,-0.2619,-0.263,-0.2623,-0.2623,-0.2623,-0.2622,-0.2622,0,-0.3035,-0.3013,-0.2988,-0.2952,-0.293,-0.2916,-0.2885,-0.2868,-0.2842,-0.2813,-0.2787,-0.2752,-0.2721,-0.2688,-0.2655,-0.2641,-0.2631,-0.2633,-0.2634,-0.2629,-0.2626,-0.2632,-0.2642,-0.2642,-0.2642,-0.2642,-0.2642,-0.2642,-0.3034,-0.3008,-0.2991,-0.2953,-0.2931,-0.2902,-0.2886,-0.2863,-0.284,-0.2802,-0.2777,-0.2756,-0.2724,-0.2689,-0.266,-0.2651,-0.264,-0.2644,-0.2632,-0.2631,-0.2629,-0.2627,-0.2633,-0.2642,-0.2642,-0.2636,-0.2636,-0.2636]},{"header":{"parameterUnit":"m.s-1","parameterCategory":1,"la1":30.2991,"la2":30.254,"lo1":-89.0895,"lo2":-89.0444,"dy":0.0017,"dx":0.0017,"nx":28,"ny":28,"refTime":"2025-02-11T03:00:00:Z","depth":0,"parameterNumber":3,"parameterNumberName":"V-component_of_WINDS"},"data":[0,0,0,0,0,0,0,0,0,0,0,0,0,0,0,0,0,0,0,0,0,0,0,0,0,0,0,0,0,0,0,0,0,0,0,0,0,0,0,0,0,0,0,0,0,0,0,0,0,0,0,0,0,0,0,0,0,0,5.6262,5.6265,0,5.6498,5.6501,5.6504,5.6553,5.6552,5.655,5.6548,5.6788,5.6796,5.6804,0,0,0,0,0,0,0,0,0,0,0,0,0,5.5852,5.5859,5.6262,5.6265,5.6268,5.6498,5.6501,5.6504,5.6554,5.6551,5.6549,5.6547,5.6785,5.6795,5.6804,0,0,0,0,0,0,0,0,0,0,0,0,0,5.6053,5.5861,5.6261,5.632,5.6328,5.6497,5.6501,5.6505,5.6554,5.6551,5.6549,5.6546,5.6782,5.6794,5.6806,5.6933,0,0,5.6843,5.6848,0,0,0,0,0,0,0,0,5.6042,5.6068,5.6309,5.6316,5.6325,5.6494,5.6445,5.6649,5.6555,5.6468,5.6548,5.6545,5.6692,5.6711,5.6761,5.6944,5.6954,5.6844,5.6851,5.6856,5.686,0,0,0,0,0,0,0,5.6028,5.6058,5.6355,5.6312,5.6322,5.6334,5.636,5.6484,5.6592,5.6475,5.648,5.6507,5.6696,5.675,5.6767,5.6958,5.6843,5.6854,5.6861,5.6866,5.7259,5.7263,0,0,0,0,0,0,5.6003,5.6046,5.6348,5.6362,5.6174,5.6344,5.6373,5.6442,5.6591,5.6611,5.6509,5.6508,5.673,5.6753,5.6776,5.6937,5.6856,5.6867,5.6874,5.7256,5.726,5.7264,0,0,0,0,0,0,5.5994,5.603,5.6338,5.6206,5.6246,5.6354,5.6432,5.6448,5.6502,5.6616,5.6636,5.6544,5.6729,5.6759,5.6894,5.6946,5.6873,5.6884,5.7252,5.7257,5.7262,5.7259,0,0,0,0,0,0,5.5982,5.6026,5.6076,5.6206,5.6253,5.6453,5.6435,5.6455,5.6523,5.6524,5.6654,5.6673,5.673,5.6876,5.6906,5.6962,5.6893,5.7248,5.7255,5.726,5.7255,5.7263,5.727,0,0,0,0,0,5.5968,5.6065,5.6078,5.6114,5.6317,5.6456,5.6482,5.6546,5.6527,5.6578,5.6651,5.6669,5.6935,5.689,5.6924,5.6983,5.7245,5.7253,5.726,5.7252,5.7261,5.727,0,0,0,0,0,0,5.5936,5.6083,5.61,5.6242,5.6336,5.6464,5.653,5.6554,5.6655,5.6652,5.6726,5.6755,5.6886,5.6948,5.6895,5.7116,5.7089,5.7104,5.7071,5.7082,5.7089,5.7073,5.6903,0,0,0,0,0,5.5946,5.6047,5.6169,5.6283,5.633,5.6422,5.6484,5.6525,5.6626,5.6666,5.6749,5.6845,5.6951,5.7019,5.7122,5.7263,5.7293,5.7321,5.7328,5.7334,5.7347,5.7428,5.7443,5.7288,5.7287,5.7287,0,0,5.5967,5.606,5.6119,5.6279,5.6357,5.6461,5.6455,5.6564,5.6641,5.6682,5.6816,5.688,5.6993,5.7132,5.7197,5.7188,5.7396,5.7343,5.7347,5.7357,5.7437,5.7452,5.7465,5.7292,5.7292,5.7291,0,0,5.6059,5.6138,5.6243,5.6322,5.6441,5.6502,5.6526,5.6651,5.6696,5.6832,5.6865,5.6958,5.7137,5.7217,5.7281,5.7404,5.7425,5.7435,5.7476,5.7555,5.7567,5.7578,5.7625,5.7641,5.7447,5.7447,5.7447,0,5.6071,5.6228,5.6294,5.6403,5.6473,5.6515,5.6623,5.6695,5.6841,5.6888,5.6875,5.7103,5.7181,5.7341,5.7371,5.7421,5.7453,5.7422,5.756,5.7572,5.7583,5.7629,5.7646,5.7448,5.7448,5.7447,5.7447,0,5.6238,5.6346,5.6417,5.6559,5.6636,5.6743,5.6825,5.6896,5.693,5.6992,5.713,5.7225,5.735,5.739,5.7424,5.7556,5.7546,5.7545,5.7521,5.7598,5.7642,5.766,5.7449,5.7448,5.7448,5.7448,0,0,5.6318,5.6496,5.6521,5.6587,5.6721,5.6806,5.6915,5.7038,5.7098,5.7197,5.7292,5.7443,5.7444,5.7516,5.7559,5.7627,5.7722,5.7619,5.7622,5.7637,5.7877,5.7879,5.7898,5.7736,5.7739,5.7742,5.7868,0,5.6429,5.6627,5.6689,5.6855,5.6957,5.6999,5.7094,5.7187,5.7247,5.7343,5.7409,5.7517,5.7508,5.7553,5.7622,5.7696,5.7772,5.7687,5.7826,5.783,5.78,5.7921,5.7923,5.8038,5.7886,5.7889,5.7891,0,5.6585,5.6689,5.6865,5.6988,5.7033,5.7118,5.7237,5.7327,5.7433,5.7473,5.7554,5.7591,5.7707,5.7674,5.7836,5.7777,5.7837,5.7882,5.7888,5.7906,5.7867,5.7945,5.8076,5.8094,5.7918,5.7916,5.7914,0,5.663,5.6813,5.6943,5.6997,5.7144,5.7203,5.7266,5.737,5.744,5.7543,5.759,5.7704,5.7768,5.7856,5.7923,5.7892,5.808,5.8052,5.8117,5.8116,5.8158,5.8155,5.8303,5.8191,5.819,5.819,5.819,0,5.6749,5.6856,5.6966,5.7046,5.7167,5.7237,5.7355,5.742,5.7512,5.7606,5.7647,5.7734,5.7816,5.7914,5.7967,5.8095,5.8122,5.8158,5.8172,5.8157,5.8152,5.8199,5.8194,5.8195,5.8194,5.8193,5.8192,0,5.6821,5.6898,5.7043,5.717,5.7205,5.7289,5.7397,5.7477,5.7539,5.7657,5.7689,5.7786,5.7904,5.7979,5.8128,5.8164,5.8305,5.8314,5.827,5.8277,5.8339,5.8334,5.8526,5.8556,5.842,5.8421,5.8422,0,5.6894,5.6977,5.7114,5.718,5.7245,5.735,5.7423,5.7495,5.7569,5.7697,5.7762,5.7882,5.7983,5.8168,5.8253,5.8367,5.8382,5.8441,5.8399,5.8382,5.8387,5.8382,5.8392,5.8449,5.845,5.8451,5.8451,0,5.7015,5.705,5.7154,5.7272,5.7358,5.7454,5.7549,5.7601,5.7689,5.777,5.7892,5.797,5.8123,5.8243,5.8366,5.8431,5.8457,5.8463,5.8486,5.8473,5.8445,5.8464,5.8292,5.8459,5.8459,5.8458,5.8458,5.8457,5.7093,5.717,5.7279,5.7394,5.7473,5.7562,5.7644,5.7717,5.782,5.7952,5.7987,5.8114,5.8219,5.8387,5.8454,5.8555,5.8548,5.8578,5.8587,5.8594,5.8597,5.8426,5.8577,5.8577,5.8577,5.8577,5.8577,0,5.7219,5.7292,5.7396,5.753,5.7621,5.7637,5.7744,5.7819,5.7931,5.8027,5.8126,5.8266,5.8382,5.8476,5.8596,5.8659,5.8674,5.8688,5.8686,5.8701,5.8595,5.8566,5.8674,5.8674,5.8674,5.8674,5.8674,5.8674,5.7296,5.7429,5.7476,5.7649,5.772,5.7847,5.7907,5.7989,5.8067,5.8222,5.832,5.838,5.8476,5.8603,5.8711,5.8736,5.8779,5.8792,5.8819,5.8719,5.8708,5.8698,5.8671,5.88,5.88,5.8917,5.8918,5.8919]}]]